AirNav   ProFlight Series 2 Aviation Headset
 
 1007 users online  

FA35 Lindbergh's Landing Airport
Miami, Florida, USA

GOING TO MIAMI?


FAA INFORMATION EFFECTIVE 16 JULY 2020

Location

FAA Identifier: FA35
Lat/Long: 25-37-10.3000N 080-29-19.2000W
25-37.171667N 080-29.320000W
25.6195278,-80.4886667
(estimated)
Elevation: 9 ft. / 3 m (estimated)
Variation: 04W (1995)
From city: 20 miles SW of MIAMI, FL
Time zone: UTC -4 (UTC -5 during Standard Time)
Zip code: 33187

Airport Operations

Airport use: Private use. Permission required prior to landing
Activation date: 01/1999
Control tower: no
ARTCC: MIAMI CENTER
FSS: MIAMI FLIGHT SERVICE STATION
Attendance: UNATNDD
Wind indicator: yes
Segmented circle: no

Airport Communications

WX ASOS at TMB (3 nm NE): PHONE 305-235-1332
WX AWOS-3 at X51 (8 nm SW): 118.375 ((305) 247-2791)
WX ASOS at MIA (15 nm NE): 119.15 (305-870-0235)

Nearby radio navigation aids

VOR radial/distance  VOR name  Freq  Var
DHPr219/13.2DOLPHIN VORTAC113.9004W
VKZr250/19.7VIRGINIA KEY VOR/DME117.1004W
FLLr219/32.3FORT LAUDERDALE VOR/DME114.4006W

Airport Services

Runway Information

Runway 9/27

Dimensions: 4000 x 70 ft. / 1219 x 21 m
Surface: turf
Runway edge markings: RY 09/27 HAS WHITE MARKERS AT 50 FT INTERVALS ALONG EDGES & AT THLDS.
RUNWAY 9  RUNWAY 27
Traffic pattern: rightleft
Obstructions: 6 ft. fence, 300 ft. from runway35 ft. pline, 900 ft. from runway

Airport Ownership and Management from official FAA records

Ownership: Privately-owned
Owner: GROVELAND AIRSTRIP ASSN -MIAMI MGMT
14275 SW 142 AVE
MIAMI, FL 33186
Phone 305-378-0130
Manager: RAMON L. TORRES
17705 SW 158 ST
MIAMI, FL 33187
Phone (305) 433-0105

Airport Operational Statistics

Aircraft based on the field: 16
Single engine airplanes: 12
Multi engine airplanes: 4
    

Additional Remarks

PILOT BRIEFING & PPR.
RADIO CTC WITH TMB ATCT (118.9) FOR TFC ADVISORIES & TMB ATIS (124.0) FOR RY IN USE & ALTIMETER SETTING.
FOR CD CTC MIAMI APCH AT 305-869-5432.

Instrument Procedures

There are no published instrument procedures at FA35.

Some nearby airports with instrument procedures:

KTMB - Miami Executive Airport (3 nm NE)
X51 - Miami Homestead General Aviation Airport (8 nm SW)
KHST - Homestead Air Reserve Base (10 nm SE)
KMIA - Miami International Airport (15 nm NE)
KOPF - Miami-Opa Locka Executive Airport (21 nm NE)
 
Loc | Ops | Rwys | IFR | FBO | Links
Com | Nav | Svcs | Stats | Notes


 
Area around FA35 (Lindbergh's Landing Airport)
 
Road maps at: MapQuest Bing Google
 
Aerial photo
No photo
 
Sectional chart

 
Airport distance calculator
Flying to Lindbergh's Landing Airport? Find the distance to fly.

From to FA35

Sunrise and sunset
Times for 08-Aug-2020
 Local
(UTC-4)
 Zulu
(UTC)
Morning civil twilight06:2910:29
Sunrise06:5310:53
Sunset20:0200:02
Evening civil twilight20:2600:26

Current date and time
Zulu (UTC)  08-Aug-2020 23:26:29
Local (UTC-4)  08-Aug-2020 19:26:29
 
METAR
KTMB 
4nm NE 
082253Z 09008KT 10SM CLR 30/25 A3011 RMK AO2 SLP194 T03000250
KHST 
11nm SE 
082256Z AUTO 06004KT 10SM CLR 30/24 A3010 RMK AO2 LTG DSNT W SLP196 T02950243
KMIA 
14nm NE 
082253Z 08007KT 10SM SCT032 SCT100 SCT250 31/23 A3010 RMK AO2 SLP194 T03060233
TAF
KTMB 
4nm NE 
082053Z 0821/0918 10010KT P6SM VCTS SCT025CB FM090100 VRB05KT P6SM FEW050 SCT100 FM091600 09008KT P6SM SCT025 BKN050
KHST 
11nm SE 
081725Z 0817/0917 07009KT 9999 SCT025 SCT200 QNH3010INS TEMPO 0818/0823 VRB12G18KT 6000 -TSRA BKN025CB BKN300 BECMG 0818/0819 07009KT 9999 VCTS SCT030CB SCT250 QNH3008INS BECMG 0823/0824 08006KT 9999 NSW FEW030 FEW250 QNH3008INS TX32/0818Z TN26/0911Z
KMIA 
14nm NE 
082052Z 0821/0924 10010KT P6SM VCTS SCT025CB FM090100 VRB04KT P6SM FEW050 SCT100 FM091600 09008KT P6SM SCT025 BKN050
NOTAMs
Click for the latest NOTAMs
NOTAMs are issued by the DoD/FAA and will open in a separate window not controlled by AirNav.

 

 
 

Would you like to see your business listed on this page?

 If your business provides an interesting product or service to pilots, flight crews, aircraft, or users of the Lindbergh's Landing Airport, you should consider listing it here.  To start the listing process, click on the button below
 
Add a business
 

Other Pages about Lindbergh's Landing Airport

Update a link
 
Copyright © AirNav, LLC. All rights reserved. Privacy Policy  Contact